Location: Kuppenheim
(48.8299°N, 8.2568°E)
Time: 08:24:03
(UTC+00:00)

N. Korean satellite - Pass Details

Date: 28 November 2022
Orbit: 407 x 442 km, 97.3° (Epoch: 04 February)

Event Time Altitude Azimuth Distance (km) Brightness Sun altitude
Rises 04:15:32 0° 21° (NNE) 2,532 10.4 -25.5°
Reaches altitude 10° 04:17:46 10° 32° (NNE) 1,649 9.6 -25.1°
Maximum altitude 04:20:57 31° 96° (E) 863 8.4 -24.6°
Drops below altitude 10° 04:24:06 10° 160° (SSE) 1,626 9.5 -24.1°
Sets 04:26:17 0° 171° (S) 2,490 10.4 -23.7°
